Flag for India Weather past 2 weeks in Kãnpur, Uttar Pradesh, India

Now
106 °F

Duststorm.


Feels Like: 108 °F
Forecast: 88 / 112 °F
Wind: 2 mph from North

Location: Lucknow / Amausi

Current Time: May 29, 2015 at 11:57:41 AM

Latest Report: May 29, 2015 at 11:00 AM


Visibility: 2 mi

Pressure: 29.62 "Hg

Humidity: 23%

Dew point: 61 °F

Location of KãnpurLocation

Historic Weather in Kãnpur — Graph

°F

Kãnpur temperature yesterday

Maximum temperature yesterday: 111 °F (at 2:30 PM)
Minimum temperature yesterday: 84 °F (at 4:00 AM)
Average temperature yesterday: 98 °F

Past Weeks' High & Low Weather Summary

 TemperatureHumidityPressure
High115 °F (May 23, 3:00 PM)75% (May 26, 8:00 AM)29.80 "Hg (May 26, 8:00 AM)
Low77 °F (May 16, 8:00 AM)13% (May 22, 2:30 PM)29.42 "Hg (May 22, 4:30 PM)
Average96 °F41%29.56 "Hg
* Reported May 14 10:30 AM — May 29 10:30 AM, Kãnpur, Weather by CustomWeather, © 2015

Note: Actual official high and low records may vary slightly from our data, if they occured in-between our weather recording intervals... More about our weather records

Advertising

Kãnpur weather history for previous 24 hours

 ConditionsComfort  
Time TempWeatherWind HumidityBarometerVisibility
10:30 AM
Fri, May 29
106 °FDuststorm.2 mph22%29.62 "Hg2 mi
10:00 AM104 °FHaze.2 mph23%29.62 "Hg2 mi
9:30 AM102 °FHaze.No wind24%29.62 "Hg2 mi
8:30 AM99 °FHaze.No wind33%29.59 "Hg2 mi
8:00 AM95 °FHaze.No wind34%29.59 "Hg2 mi
7:30 AM91 °FHaze.No wind36%29.59 "Hg2 mi
7:00 AM88 °FHaze.No wind40%29.56 "Hg2 mi
6:30 AM84 °FHaze.No wind45%29.56 "Hg2 mi
6:00 AM81 °FHaze.No wind54%29.53 "Hg2 mi
5:30 AM79 °FHaze.No wind58%29.53 "Hg2 mi
5:00 AM81 °FHaze.No wind54%29.53 "Hg2 mi
4:00 AM82 °FHaze.No wind48%29.53 "Hg2 mi
3:00 AM84 °FHaze.No wind48%29.50 "Hg2 mi
2:00 AM84 °FHaze.No wind48%29.53 "Hg2 mi
1:00 AM91 °FHaze.No wind34%29.53 "Hg2 mi
12:00 AM91 °FHaze.No wind34%29.53 "Hg2 mi
11:00 PM
Thu, May 28
91 °FHaze.No wind36%29.56 "Hg2 mi
10:00 PM93 °FHaze.No wind34%29.56 "Hg2 mi
9:00 PM93 °FHaze.No wind34%29.53 "Hg2 mi
8:30 PM97 °FHaze.No wind30%29.50 "Hg3 mi
8:00 PM99 °FDuststorm.No wind27%29.50 "Hg3 mi
7:30 PM102 °FDuststorm.No wind23%29.50 "Hg3 mi
7:00 PM104 °FDuststorm.2 mph23%29.50 "Hg3 mi
6:30 PM106 °FDuststorm.3 mph19%29.50 "Hg3 mi
6:00 PM108 °FPassing clouds.6 mph17%29.50 "Hg3 mi
5:30 PM109 °FPassing clouds.5 mph16%29.50 "Hg3 mi
5:00 PM111 °FPassing clouds.6 mph15%29.50 "Hg3 mi
4:30 PM111 °FPassing clouds.7 mph18%29.50 "Hg3 mi
4:00 PM111 °FPassing clouds.6 mph18%29.50 "Hg3 mi
3:30 PM111 °FPassing clouds.5 mph18%29.50 "Hg3 mi
2:30 PM111 °FDuststorm.6 mph20%29.53 "Hg3 mi
2:00 PM109 °FDuststorm.6 mph22%29.53 "Hg3 mi
1:30 PM108 °FDuststorm.6 mph26%29.56 "Hg3 mi
1:00 PM108 °FDuststorm.6 mph28%29.56 "Hg3 mi
12:30 PM106 °FDuststorm.8 mph30%29.59 "Hg3 mi
11:30 AM104 °FDuststorm.7 mph38%29.59 "Hg3 mi
Weather by CustomWeather, © 2015

See weather overviewHow to use our weather pages